Flag for Germany Weather past 2 weeks in Erkelenz, North Rhine-Westphalia, Germany

Now
61 °F

Passing clouds.


Feels Like: 61 °F
Forecast: 47 / 58 °F
Wind: 12 mph from Northwest

Location: Monchengladbach Airport

Current Time: May 25, 2015 at 5:42:49 PM

Latest Report: May 25, 2015 at 5:20 PM


Visibility: N/A

Pressure: 29.98 "Hg

Humidity: 55%

Dew point: 45 °F

Location of ErkelenzLocation

Historic Weather in Erkelenz — Graph

°F

Erkelenz temperature yesterday

Maximum temperature yesterday: 68 °F (at 5:50 PM)
Minimum temperature yesterday: 52 °F (at 7:50 AM)
Average temperature yesterday: 62 °F

Past Weeks' High & Low Weather Summary

 TemperatureHumidityPressure
High81 °F (May 11, 4:50 PM)100% (May 16, 2:50 PM)30.33 "Hg (May 16, 2:50 PM)
Low41 °F (May 21, 6:20 AM)30% (May 11, 4:50 PM)29.65 "Hg (May 18, 6:20 PM)
Average61 °F58%30.07 "Hg
* Reported May 10 4:20 PM — May 25 4:20 PM, Erkelenz, Weather by CustomWeather, © 2015

Note: Actual official high and low records may vary slightly from our data, if they occured in-between our weather recording intervals... More about our weather records

Advertising

Erkelenz weather history for previous 24 hours

 ConditionsComfort  
Time TempWeatherWind HumidityBarometerVisibility
4:20 PM
Mon, May 25
61 °FPassing clouds.7 mph59%29.98 "HgN/A
3:50 PM61 °FPassing clouds.6 mph59%29.98 "HgN/A
3:20 PM61 °FPassing clouds.6 mph63%29.98 "HgN/A
2:50 PM59 °FPassing clouds.6 mph63%29.98 "HgN/A
2:20 PM57 °FPassing clouds.9 mph67%29.98 "HgN/A
1:50 PM57 °FPassing clouds.7 mph63%29.98 "HgN/A
1:20 PM57 °FPartly sunny.7 mph72%29.98 "HgN/A
12:50 PM57 °FPartly sunny.6 mph77%29.98 "HgN/A
12:20 PM55 °FPartly sunny.5 mph77%29.98 "HgN/A
11:50 AM54 °FPartly sunny.7 mph88%29.98 "HgN/A
11:20 AM52 °FScattered clouds.8 mph100%29.98 "HgN/A
10:50 AM54 °FDrizzle. Fog.2 mph100%29.98 "Hg1 mi
10:20 AM54 °FDrizzle. Fog.3 mph100%29.98 "Hg1 mi
9:50 AM54 °FDrizzle. Fog.3 mph100%30.01 "Hg1 mi
9:20 AM54 °FDrizzle. Fog.2 mph94%30.01 "Hg1 mi
8:50 AM54 °FDrizzle. Partly sunny.5 mph94%30.01 "Hg4 mi
8:20 AM55 °FPartly sunny.3 mph82%30.01 "HgN/A
7:50 AM54 °FPartly sunny.2 mph88%30.01 "HgN/A
8:20 PM
Sun, May 24
66 °FPassing clouds.6 mph46%30.04 "HgN/A
7:50 PM66 °FPassing clouds.6 mph46%30.04 "HgN/A
7:20 PM68 °FPassing clouds.6 mph40%30.04 "HgN/A
6:50 PM68 °FPassing clouds.8 mph40%30.04 "HgN/A
6:20 PM66 °FPassing clouds.8 mph43%30.04 "HgN/A
5:50 PM68 °FClear.5 mph40%30.04 "Hg10 mi
5:20 PM66 °FPassing clouds.9 mph46%30.07 "HgN/A
Weather by CustomWeather, © 2015

See weather overviewHow to use our weather pages